Preview of NWS' New Version of Forecast
This preview is not operational and should not be used for support decisions.

Regional Weather Roundup (RWR)

Issued by National Weather Service (NWS)

                            
000
ASPQ40 PGUM 231010
RWRPQ 
WEATHER ROUNDUP FOR THE MARIANAS AND MICRONESIA
NATIONAL WEATHER SERVICE TIYAN GU
800 PM CHST SUN JUN 23 2019

GUZ001>004-231100-
MARIANA ISLANDS-
  
CITY           SKY/WX    TMP DP  RH WIND       PRES   REMARKS
GUAM AIRPORT   PTCLDY    84  75  74 E10G18    29.87R HX  92           
ANDERSEN AFB   MOCLDY    82  75  78 E14       29.88R                  
ROTA AIRPORT   PTCLDY    81  73  78 E13       29.87R                  
TINIAN AP      PTCLDY    82  77  83 E12       29.86R HX  91           
SAIPAN AP      PTCLDY    82  75  78 E13       29.87R                  

$$

PMZ161-231100-
REPUBLIC OF PALAU-
  
CITY           SKY/WX    TMP DP  RH WIND       PRES   REMARKS
KOROR AP       MOCLDY    81  77  89 W6        29.79R                  
KOROR WSO      NOT AVBL                                               

$$

PMZ171>174-231100-
FEDERATED STATES OF MICRONESIA-
  
CITY           SKY/WX    TMP DP  RH WIND       PRES   REMARKS
YAP AIRPORT    MOCLDY    84  79  84 CALM      29.82R HX  96           
CHUUK AP       LGT RAIN  79  75  89 E8        29.83S                  
POHNPEI AP     NOT AVBL                                               
POHNPEI WSO    CLOUDY    79  77  94 S2        29.86R                  
KOSRAE AP      NOT AVBL                                               

$$

PMZ181-231100-
REPUBLIC OF THE MARSHALL ISLANDS-
  
CITY           SKY/WX    TMP DP  RH WIND       PRES   REMARKS
KWAJALEIN AP   CLEAR     81  79  94 NE9       29.84S                  
MAJURO AP      NOT AVBL                                               
MAJURO WSO     PTCLDY    82  77  83 E8        29.81R HX  91           

$$